Time,TemperatureF,DewpointF,PressureIn,WindDirection,WindDirectionDegrees,WindSpeedMPH,WindSpeedGustMPH,Humidity,HourlyPrecipIn,Conditions,Clouds,dailyrainin,SolarRadiationWatts/m^2,SoftwareType,DateUTC
2013-11-10 00:12:00,38.8,30.0,30.09,WSW,253,10.0,15.0,71,0.00,,,0.00,0,weatherlink.com 1.10,2013-11-10 06:12:00,
2013-11-10 00:27:00,38.8,30.0,30.09,West,268,14.0,19.0,72,0.00,,,0.00,0,weatherlink.com 1.10,2013-11-10 06:27:00,
2013-11-10 00:42:00,38.8,30.0,30.10,West,273,13.0,18.0,72,0.00,,,0.00,0,weatherlink.com 1.10,2013-11-10 06:42:00,
2013-11-10 00:56:00,38.8,30.0,30.11,WNW,294,12.0,21.0,72,0.00,,,0.00,0,weatherlink.com 1.10,2013-11-10 06:56:00,
2013-11-10 01:11:00,38.9,31.0,30.12,West,279,10.0,19.0,72,0.00,,,0.00,0,weatherlink.com 1.10,2013-11-10 07:11:00,
2013-11-10 01:26:00,38.8,30.0,30.12,WNW,292,8.0,17.0,72,0.00,,,0.00,0,weatherlink.com 1.10,2013-11-10 07:26:00,
2013-11-10 01:41:00,38.8,30.0,30.12,West,281,11.0,16.0,72,0.00,,,0.00,0,weatherlink.com 1.10,2013-11-10 07:41:00,
2013-11-10 01:56:00,38.7,30.0,30.13,West,270,10.0,21.0,72,0.00,,,0.00,0,weatherlink.com 1.10,2013-11-10 07:56:00,
2013-11-10 02:12:00,38.6,31.0,30.13,WNW,285,12.0,15.0,73,0.00,,,0.00,0,weatherlink.com 1.10,2013-11-10 08:12:00,
2013-11-10 02:27:00,38.5,30.0,30.13,WNW,286,8.0,17.0,72,0.00,,,0.00,0,weatherlink.com 1.10,2013-11-10 08:27:00,
2013-11-10 02:42:00,38.1,31.0,30.14,West,267,6.0,14.0,75,0.00,,,0.00,0,weatherlink.com 1.10,2013-11-10 08:42:00,
2013-11-10 02:57:00,38.2,31.0,30.15,West,267,14.0,19.0,74,0.00,,,0.00,0,weatherlink.com 1.10,2013-11-10 08:57:00,
2013-11-10 03:12:00,38.2,31.0,30.15,WNW,293,8.0,17.0,75,0.00,,,0.00,0,weatherlink.com 1.10,2013-11-10 09:12:00,
2013-11-10 03:27:00,38.2,31.0,30.15,West,279,12.0,19.0,75,0.00,,,0.00,0,weatherlink.com 1.10,2013-11-10 09:27:00,
2013-11-10 03:42:00,38.4,31.0,30.16,West,272,9.0,20.0,74,0.00,,,0.00,0,weatherlink.com 1.10,2013-11-10 09:42:00,
2013-11-10 03:57:00,38.5,31.0,30.17,WNW,282,9.0,17.0,74,0.00,,,0.00,0,weatherlink.com 1.10,2013-11-10 09:57:00,
2013-11-10 04:12:00,38.4,31.0,30.18,WNW,291,12.0,17.0,75,0.00,,,0.00,0,weatherlink.com 1.10,2013-11-10 10:12:00,
2013-11-10 04:27:00,38.4,31.0,30.19,WNW,297,9.0,15.0,75,0.00,,,0.00,0,weatherlink.com 1.10,2013-11-10 10:27:00,
2013-11-10 04:42:00,38.4,31.0,30.20,WNW,282,7.0,15.0,75,0.00,,,0.00,0,weatherlink.com 1.10,2013-11-10 10:42:00,
2013-11-10 04:57:00,38.5,31.0,30.20,WNW,300,11.0,18.0,74,0.00,,,0.00,0,weatherlink.com 1.10,2013-11-10 10:57:00,
2013-11-10 05:12:00,38.5,31.0,30.21,West,262,8.0,16.0,74,0.00,,,0.00,0,weatherlink.com 1.10,2013-11-10 11:12:00,
2013-11-10 05:27:00,38.4,31.0,30.21,WNW,296,7.0,13.0,75,0.00,,,0.00,0,weatherlink.com 1.10,2013-11-10 11:27:00,
2013-11-10 05:42:00,38.3,31.0,30.22,WNW,284,8.0,14.0,75,0.00,,,0.00,0,weatherlink.com 1.10,2013-11-10 11:42:00,
2013-11-10 05:57:00,38.2,31.0,30.22,WNW,296,10.0,14.0,75,0.00,,,0.00,0,weatherlink.com 1.10,2013-11-10 11:57:00,
2013-11-10 06:12:00,38.2,31.0,30.23,WNW,291,9.0,14.0,75,0.00,,,0.00,0,weatherlink.com 1.10,2013-11-10 12:12:00,
2013-11-10 06:27:00,38.1,31.0,30.24,WNW,299,7.0,10.0,76,0.00,,,0.00,0,weatherlink.com 1.10,2013-11-10 12:27:00,
2013-11-10 06:42:00,38.3,31.0,30.26,WNW,294,9.0,13.0,76,0.00,,,0.00,0,weatherlink.com 1.10,2013-11-10 12:42:00,
2013-11-10 06:57:00,38.5,31.0,30.27,WNW,296,10.0,14.0,74,0.00,,,0.00,5,weatherlink.com 1.10,2013-11-10 12:57:00,
2013-11-10 07:12:00,38.5,31.0,30.28,West,279,11.0,14.0,74,0.00,,,0.00,12,weatherlink.com 1.10,2013-11-10 13:12:00,
2013-11-10 07:28:00,38.6,31.0,30.29,WNW,289,6.0,13.0,74,0.00,,,0.00,30,weatherlink.com 1.10,2013-11-10 13:28:00,
2013-11-10 07:43:00,38.8,32.0,30.30,WNW,298,8.0,12.0,75,0.00,,,0.00,47,weatherlink.com 1.10,2013-11-10 13:43:00,
2013-11-10 07:58:00,38.9,31.0,30.30,NW,308,7.0,11.0,74,0.00,,,0.00,58,weatherlink.com 1.10,2013-11-10 13:58:00,
2013-11-10 08:13:00,38.7,31.0,30.30,NNW,331,8.0,12.0,75,0.00,,,0.00,42,weatherlink.com 1.10,2013-11-10 14:13:00,
2013-11-10 08:28:00,39.2,32.0,30.30,WNW,300,8.0,14.0,74,0.00,,,0.00,28,weatherlink.com 1.10,2013-11-10 14:28:00,
2013-11-10 08:43:00,39.7,31.0,30.31,NNW,344,6.0,16.0,71,0.00,,,0.00,98,weatherlink.com 1.10,2013-11-10 14:43:00,
2013-11-10 08:58:00,40.0,30.0,30.32,NW,324,12.0,16.0,68,0.00,,,0.00,53,weatherlink.com 1.10,2013-11-10 14:58:00,
2013-11-10 09:13:00,40.1,31.0,30.32,NNW,331,9.0,17.0,69,0.00,,,0.00,63,weatherlink.com 1.10,2013-11-10 15:13:00,
2013-11-10 09:28:00,41.2,32.0,30.32,NW,306,5.0,12.0,69,0.00,,,0.00,84,weatherlink.com 1.10,2013-11-10 15:28:00,
2013-11-10 09:43:00,40.7,31.0,30.33,NW,310,3.0,11.0,69,0.00,,,0.00,116,weatherlink.com 1.10,2013-11-10 15:43:00,
2013-11-10 09:58:00,40.8,31.0,30.33,West,273,4.0,13.0,69,0.00,,,0.00,132,weatherlink.com 1.10,2013-11-10 15:58:00,
2013-11-10 10:13:00,41.6,32.0,30.33,West,279,11.0,11.0,68,0.00,,,0.00,120,weatherlink.com 1.10,2013-11-10 16:13:00,
2013-11-10 10:28:00,41.8,32.0,30.34,WNW,299,6.0,12.0,67,0.00,,,0.00,125,weatherlink.com 1.10,2013-11-10 16:28:00,
2013-11-10 10:43:00,42.0,31.0,30.34,West,259,4.0,14.0,66,0.00,,,0.00,44,weatherlink.com 1.10,2013-11-10 16:43:00,
2013-11-10 10:58:00,42.6,32.0,30.34,WNW,288,7.0,12.0,67,0.00,,,0.00,39,weatherlink.com 1.10,2013-11-10 16:58:00,
2013-11-10 11:13:00,42.4,30.0,30.33,WSW,258,10.0,13.0,63,0.00,,,0.00,46,weatherlink.com 1.10,2013-11-10 17:13:00,
2013-11-10 11:28:00,42.5,32.0,30.33,WNW,286,6.0,16.0,66,0.00,,,0.00,58,weatherlink.com 1.10,2013-11-10 17:28:00,
2013-11-10 11:43:00,43.2,31.0,30.33,WNW,284,9.0,15.0,62,0.00,,,0.00,33,weatherlink.com 1.10,2013-11-10 17:43:00,
2013-11-10 11:58:00,43.3,31.0,30.32,WSW,252,7.0,14.0,63,0.00,,,0.00,32,weatherlink.com 1.10,2013-11-10 17:58:00,
2013-11-10 12:13:00,44.1,30.0,30.32,WNW,298,6.0,11.0,59,0.00,,,0.00,33,weatherlink.com 1.10,2013-11-10 18:13:00,
2013-11-10 12:28:00,44.3,31.0,30.31,West,278,7.0,16.0,61,0.00,,,0.00,98,weatherlink.com 1.10,2013-11-10 18:28:00,
2013-11-10 12:43:00,44.5,32.0,30.30,WSW,253,9.0,14.0,62,0.00,,,0.00,40,weatherlink.com 1.10,2013-11-10 18:43:00,
2013-11-10 12:58:00,44.7,32.0,30.30,WSW,250,10.0,13.0,62,0.00,,,0.00,473,weatherlink.com 1.10,2013-11-10 18:58:00,
2013-11-10 13:14:00,45.0,31.0,30.30,WSW,240,5.0,13.0,59,0.00,,,0.00,454,weatherlink.com 1.10,2013-11-10 19:14:00,
2013-11-10 13:28:00,45.2,31.0,30.30,WSW,245,2.0,9.0,59,0.00,,,0.00,427,weatherlink.com 1.10,2013-11-10 19:28:00,
2013-11-10 13:43:00,45.2,31.0,30.29,West,268,7.0,11.0,59,0.00,,,0.00,290,weatherlink.com 1.10,2013-11-10 19:43:00,
2013-11-10 13:58:00,45.0,30.0,30.29,West,275,7.0,11.0,57,0.00,,,0.00,32,weatherlink.com 1.10,2013-11-10 19:58:00,
2013-11-10 14:13:00,45.3,32.0,30.29,WSW,239,2.0,14.0,60,0.00,,,0.00,39,weatherlink.com 1.10,2013-11-10 20:13:00,
2013-11-10 14:28:00,45.5,31.0,30.28,WSW,242,7.0,12.0,57,0.00,,,0.00,33,weatherlink.com 1.10,2013-11-10 20:28:00,
2013-11-10 14:43:00,45.5,32.0,30.28,WSW,250,8.0,9.0,59,0.00,,,0.00,30,weatherlink.com 1.10,2013-11-10 20:43:00,
2013-11-10 14:58:00,45.7,33.0,30.28,SSW,208,2.0,5.0,61,0.00,,,0.00,35,weatherlink.com 1.10,2013-11-10 20:58:00,
2013-11-10 15:13:00,45.8,33.0,30.28,SW,226,2.0,5.0,61,0.00,,,0.00,77,weatherlink.com 1.10,2013-11-10 21:13:00,
2013-11-10 15:28:00,45.8,33.0,30.28,WSW,242,5.0,7.0,61,0.00,,,0.00,51,weatherlink.com 1.10,2013-11-10 21:28:00,
2013-11-10 15:44:00,44.6,33.0,30.27,SSW,212,1.0,5.0,64,0.00,,,0.00,46,weatherlink.com 1.10,2013-11-10 21:44:00,
2013-11-10 15:59:00,43.8,33.0,30.28,WSW,241,2.0,5.0,67,0.00,,,0.00,19,weatherlink.com 1.10,2013-11-10 21:59:00,
2013-11-10 16:14:00,42.8,33.0,30.28,WSW,244,1.0,4.0,68,0.00,,,0.00,9,weatherlink.com 1.10,2013-11-10 22:14:00,
2013-11-10 16:29:00,42.0,33.0,30.28,WSW,244,0.0,3.0,71,0.00,,,0.00,0,weatherlink.com 1.10,2013-11-10 22:29:00,
2013-11-10 16:44:00,41.8,33.0,30.28,WSW,244,0.0,2.0,71,0.00,,,0.00,0,weatherlink.com 1.10,2013-11-10 22:44:00,
2013-11-10 16:59:00,41.7,33.0,30.27,WSW,244,0.0,1.0,72,0.00,,,0.00,0,weatherlink.com 1.10,2013-11-10 22:59:00,
2013-11-10 17:14:00,41.6,33.0,30.27,WSW,244,0.0,1.0,72,0.00,,,0.00,0,weatherlink.com 1.10,2013-11-10 23:14:00,
2013-11-10 17:29:00,41.6,33.0,30.26,WSW,244,0.0,0.0,71,0.00,,,0.00,0,weatherlink.com 1.10,2013-11-10 23:29:00,
2013-11-10 17:44:00,41.5,34.0,30.26,WSW,244,0.0,1.0,74,0.00,,,0.00,0,weatherlink.com 1.10,2013-11-10 23:44:00,
2013-11-10 17:59:00,41.5,34.0,30.26,WSW,244,1.0,2.0,76,0.00,,,0.00,0,weatherlink.com 1.10,2013-11-10 23:59:00,
2013-11-10 18:14:00,41.5,34.0,30.26,WSW,244,0.0,2.0,75,0.00,,,0.00,0,weatherlink.com 1.10,2013-11-11 00:14:00,
2013-11-10 18:29:00,41.8,34.0,30.25,WSW,244,0.0,1.0,74,0.00,,,0.00,0,weatherlink.com 1.10,2013-11-11 00:29:00,
2013-11-10 18:44:00,41.7,35.0,30.25,WSW,243,2.0,3.0,76,0.00,,,0.00,0,weatherlink.com 1.10,2013-11-11 00:44:00,
2013-11-10 18:59:00,42.0,34.0,30.25,SW,219,2.0,3.0,74,0.00,,,0.00,0,weatherlink.com 1.10,2013-11-11 00:59:00,
2013-11-10 19:14:00,42.1,35.0,30.24,SW,219,1.0,5.0,75,0.00,,,0.00,0,weatherlink.com 1.10,2013-11-11 01:14:00,
2013-11-10 19:29:00,42.2,34.0,30.24,SSW,210,1.0,5.0,74,0.00,,,0.00,0,weatherlink.com 1.10,2013-11-11 01:29:00,
2013-11-10 19:44:00,42.1,35.0,30.23,SSW,211,1.0,3.0,75,0.00,,,0.00,0,weatherlink.com 1.10,2013-11-11 01:44:00,
2013-11-10 19:59:00,42.0,35.0,30.22,SSW,211,2.0,4.0,75,0.00,,,0.00,0,weatherlink.com 1.10,2013-11-11 01:59:00,
2013-11-10 20:14:00,41.9,35.0,30.22,SSW,211,0.0,3.0,76,0.00,,,0.00,0,weatherlink.com 1.10,2013-11-11 02:14:00,
2013-11-10 20:29:00,41.8,35.0,30.22,SSW,211,1.0,3.0,77,0.00,,,0.00,0,weatherlink.com 1.10,2013-11-11 02:29:00,
2013-11-10 20:44:00,41.7,35.0,30.22,SSW,211,0.0,4.0,76,0.00,,,0.00,0,weatherlink.com 1.10,2013-11-11 02:44:00,
2013-11-10 20:59:00,41.6,35.0,30.21,SSW,211,0.0,2.0,77,0.00,,,0.00,0,weatherlink.com 1.10,2013-11-11 02:59:00,
2013-11-10 21:14:00,41.6,35.0,30.21,SSW,211,0.0,2.0,76,0.00,,,0.00,0,weatherlink.com 1.10,2013-11-11 03:14:00,
2013-11-10 21:29:00,41.6,35.0,30.21,SSW,211,1.0,2.0,77,0.00,,,0.00,0,weatherlink.com 1.10,2013-11-11 03:29:00,
2013-11-10 21:44:00,41.5,35.0,30.20,SSW,211,0.0,2.0,77,0.00,,,0.00,0,weatherlink.com 1.10,2013-11-11 03:44:00,
2013-11-10 21:59:00,41.4,35.0,30.21,SSW,211,0.0,2.0,77,0.00,,,0.00,0,weatherlink.com 1.10,2013-11-11 03:59:00,
2013-11-10 22:14:00,41.3,35.0,30.20,SSW,211,2.0,2.0,78,0.00,,,0.00,0,weatherlink.com 1.10,2013-11-11 04:14:00,
2013-11-10 22:29:00,41.3,35.0,30.19,SSW,211,0.0,2.0,78,0.00,,,0.00,0,weatherlink.com 1.10,2013-11-11 04:29:00,
2013-11-10 22:44:00,41.2,35.0,30.17,SSW,203,1.0,3.0,78,0.00,,,0.00,0,weatherlink.com 1.10,2013-11-11 04:44:00,
2013-11-10 22:59:00,41.4,35.0,30.18,SSW,206,1.0,4.0,77,0.00,,,0.00,0,weatherlink.com 1.10,2013-11-11 04:59:00,
2013-11-10 23:14:00,41.4,35.0,30.18,SW,217,2.0,5.0,77,0.00,,,0.00,0,weatherlink.com 1.10,2013-11-11 05:14:00,
2013-11-10 23:29:00,41.4,35.0,30.18,SSW,213,1.0,5.0,77,0.00,,,0.00,0,weatherlink.com 1.10,2013-11-11 05:29:00,
2013-11-10 23:44:00,41.4,34.0,30.18,SW,228,4.0,6.0,76,0.00,,,0.00,0,weatherlink.com 1.10,2013-11-11 05:44:00,
2013-11-10 23:59:00,41.3,34.0,30.17,SW,214,3.0,6.0,76,0.00,,,0.00,0,weatherlink.com 1.10,2013-11-11 05:59:00,